www.pogodaiklimat.ru

Погода и климат >> Архив погоды >> Россия >> Крым >> Черноморское


АРХИВ ПОГОДЫ в Черноморском

Время (UTC), дата Ветер
(напр.,м/с)
 
Видим.   Явления Облачность Т
(С)
Тd
(С)
f
(%)
Тe
(С)
Тes
(С)
Комфортность P
(гПа)
Po
(гПа)
Тmin
(С)
Tmax
(С)
R
(мм)
R24
(мм)
S
(см)
18 14.07 З 2 20 км 5/5 600 м
[Cu med, cong]
+22.5 +14.2 59 +26 +26 жарко 1008.2 1007.0 +25.4
21 14.07 СЗ 3 20 км 4/0
[Ci fib]
+22.4 +13.8 58 +26 +26 жарко 1007.2 1006.0
00 15.07 СВ 3 20 км ясно +21.8 +18.1 80 +27 +27 душно 1005.6 1004.4
03 15.07 В 4 20 км 6/0
[Ci fib]
+18.2 +13.8 75 +18 +19 1005.7 1004.5 +16.0
06 15.07 В 5 50 км 9/0
[Ci fib]
+24.0 +12.5 49 +26 +30 жарко 1006.1 1004.9 +16.0
09 15.07 СВ 7 20 км 9/3 600 м
[Cu med, cong Ci fib]
+23.9 +17.9 69 +28 +31 душно 1005.8 1004.6
12 15.07 В 5
{11}
20 км гроза без осадков 10/4 600 м
[Cb cap Ac As Ci ing]
+20.8 +13.5 63 +23 +26 комфорт 1006.9 1005.7
15 15.07 З 5 20 км {гроза} 10/1 600 м
[Cu med, cong Ac As Ci ing]
+22.8 +15.1 62 +27 +28 душно 1006.6 1005.4
18 15.07 СЗ 5 20 км {гроза} 10/0
[Ac trans Cc]
+23.0 +16.5 67 +28 +28 душно 1007.3 1006.1 +26.0
21 15.07 СЗ 6 20 км 10/0
[Cs]
+23.3 +16.1 64 +28 +28 душно 1006.9 1005.7
00 16.07 С 5
{11}
20 км 10/0
[Cs]
+21.3 +13.1 59 +24 +24 комфорт 1007.4 1006.2
03 16.07 СВ 1 20 км 6/0
[Ac trans Cc]
+19.2 +15.1 77 +22 +22 комфорт 1007.5 1006.3 +19.1
06 16.07 СЗ 3 20 км 4/0
[Cc]
+22.1 +15.8 67 +26 +32 душно 1008.4 1007.2 +18.9
09 16.07 СЗ 5 20 км 4/0
[Ci fib]
+23.0 +16.8 68 +28 +37 душно 1008.9 1007.7
12 16.07 СЗ 5 20 км 3/3 600 м
[Cu med, cong]
+23.5 +15.4 60 +26 +32 жарко 1008.8 1007.6
15 16.07 З 3 20 км 8/3 600 м
[Cu med, cong Ci fib]
+24.3 +14.6 55 +27 +29 жарко 1008.8 1007.6
18 16.07 З 4 20 км 9/0
[Ci fib]
+22.2 +14.8 63 +26 +26 душно 1009.0 1007.8 +24.6
21 16.07 Ю 2 20 км 1/0
[Ci fib]
+18.8 +15.0 79 +20 +20 1009.6 1008.4
00 17.07 ЮВ 2 10 км 9/0
[Ci fib]
+18.0 +15.8 87 +19 +19 1008.8 1007.6
03 17.07 ЮВ 3 10 км 8/0
[Ci fib]
+18.2 +16.2 88 +19 +19 1008.6 1007.4 +17.6
06 17.07 ЮЗ 1 20 км 3/0
[Ci fib]
+24.3 +15.9 59 +27 +37 жарко 1008.8 1007.6 +17.6
09 17.07 СЗ 4 20 км гроза без осадков 5/5 600 м
[Cb cap]
+24.4 +18.6 70 +29 +35 душно 1008.5 1007.3
12 17.07 СЗ 3 20 км {гроза} 5/5 600 м
[Cb cap]
+25.2 +17.7 63 +29 +35 душно 1008.6 1007.4
15 17.07 СЗ 3 20 км 3/3 600 м
[Cu med, cong]
+24.9 +17.2 62 +29 +31 душно 1007.8 1006.6
18 17.07 СЗ 3 20 км 5/0
[Cs]
+23.5 +14.9 58 +26 +26 жарко 1008.2 1007.0 +25.6
21 17.07 Ю 2 20 км ясно +18.0 +14.2 78 +19 +19 1008.9 1007.7
00 18.07 В 1 10 км ясно +17.4 +14.7 84 +18 +18 1008.7 1007.5
03 18.07 Ю 2 10 км ясно +16.2 +14.1 87 +16 +17 1009.2 1008.0 +16.1
06 18.07 С 4 20 км ясно +22.5 +16.4 68 +27 +32 душно 1010.1 1008.9 +16.1
09 18.07 СВ 6 50 км 1/1 600 м
[Cu hum]
+24.6 +13.1 49 +27 +33 жарко 1011.0 1009.8
12 18.07 СЗ 5 50 км 1/1 600 м
[Cu hum]
+25.5 +13.4 47 +28 +34 жарко 1011.5 1010.3
15 18.07 З 5 20 км ясно +24.4 +15.7 58 +27 +29 жарко 1011.9 1010.7
18 18.07 З 4 20 км ясно +23.0 +14.9 60 +27 +27 душно 1012.8 1011.6 +26.1
21 18.07 СЗ 4 20 км ясно +22.8 +16.4 67 +27 +27 душно 1014.2 1013.0
00 19.07 З 3 20 км ясно +21.7 +16.4 72 +26 +26 душно 1014.7 1013.5
03 19.07 штиль 0 10 км 3/0
[Cu med, cong Ac trans]
+16.4 +14.1 86 +16 +17 1016.0 1014.8 +16.3
06 19.07 В 2 50 км ясно +25.0 +10.3 40 +26 +34 жарко 1016.5 1015.3 +16.3
09 19.07 СЗ 4 20 км 4/4 600 м
[Cu med, cong]
+24.2 +16.9 64 +28 +35 душно 1017.4 1016.2
12 19.07 СЗ 4 50 км 1/1 600 м
[Cu hum]
+25.3 +13.2 47 +27 +36 жарко 1017.5 1016.3
15 19.07 СЗ 4 50 км 6/1 600 м
[Cu hum Cc]
+25.2 +11.3 42 +27 +28 жарко 1017.1 1015.9
18 19.07 СЗ 3 20 км 1/0
[Ci fib]
+23.6 +14.5 57 +26 +26 жарко 1017.6 1016.4 +26.1
21 19.07 СЗ 1 20 км ясно +18.2 +13.0 72 +20 +20 1018.5 1017.3
00 20.07 Ю 2 10 км ясно +16.8 +14.0 84 +17 +17 1019.1 1017.9
03 20.07 Ю 2 10 км ясно +16.3 +14.2 87 +16 +17 1019.4 1018.2 +16.2
06 20.07 С 1 20 км ясно +23.6 +17.0 66 +27 +37 жарко 1019.7 1018.5 +16.0
09 20.07 С 4 20 км 1/1 600 м
[Cu med, cong]
+25.0 +17.2 62 +29 +40 душно 1019.8 1018.6
12 20.07 СЗ 4 20 км 1/1 600 м
[Cu med, cong]
+26.2 +18.0 61 +31 +39 очень
душно
1019.8 1018.6
15 20.07 СЗ 3 20 км 1/1 600 м
[Cu med, cong]
+25.9 +17.3 59 +30 +32 душно 1018.8 1017.6
18 20.07 С 2 20 км 8/0
[Ac As]
+23.6 +18.4 73 +28 +28 душно 1019.0 1017.8 +26.5
21 20.07 Ю 1 10 км ясно +20.4 +17.6 84 +25 +25 комфорт 1019.7 1018.5
00 21.07 ЮВ 2 10 км ясно +19.2 +17.4 89 +22 +22 комфорт 1019.2 1018.0
03 21.07 штиль 0 10 км ясно +19.0 +17.0 88 +20 +21 1019.1 1017.9 +18.4
06 21.07 СЗ 4 20 км ясно +24.6 +19.1 71 +30 +35 очень
душно
1019.2 1018.0 +18.4
09 21.07 С 4 20 км 1/1 600 м
[Cu med, cong]
+25.6 +18.0 63 +30 +41 душно 1018.6 1017.4
12 21.07 СЗ 4 20 км 1/1 600 м
[Cu med, cong]
+26.8 +18.9 62 +32 +41 очень
душно
1018.6 1017.4

 

Местоположение метеостанции Черноморское (Крым, Россия): широта 45.52 долгота 32.70 высота над уровнем моря 10 м.

В архиве по умолчанию представлена погода в Черноморском за последнюю неделю. Архивные данные за месяц целиком и за предыдущие месяцы, начиная с января 2011 года, Вы можете получить, выбрав интересующий диапазон дат из раскрывающегося списка и нажав кнопку "Ввод!".


*Определитесь, кто Вы:
робот инопланетянин человек

Внимание! Время в таблицах - всемирное. Для получения местного времени необходимо прибавить поправку, которая равна 3 ч.

Смотрите также архив погоды в соседних городах и на ближайших метеорологических станциях:

Погода в Евпатории (Крым, Россия) (65 км)
Погода в Раздольном (Крым, Россия) (67 км)
Погода в Хорлах (Херсонская область, Украина) (83 км)
Погода в Бехтерах (Херсонская область, Украина) (87 км)
Погода в Ишуни (Крым, Россия) (98 км)
Погода в Симферополе (Крым, Россия) (113 км)
Погода в Клепинино (Крым, Россия) (115 км)
Погода в Херсонесском Маяке (город Севастополь, Россия) (117 км)
Погода в Севастополе (город Севастополь, Россия) (119 км)
Погода в Херсоне (Херсонская область, Украина) (124 км)

Пояснения к столбцам:

Ветер - указаны скорость ветра в м/с - средняя за 10 мин, порывы в срок и между сроками (в фигурных скобках) и направление, откуда дует ветер: С - северный, СВ - северо-восточный, В - восточный, ЮВ - юго-восточный, Ю - южный, ЮЗ - юго-западный, З - западный, СЗ - северо-западный.
Видимость - горизонтальная дальность видимости в метрах или километрах. При видимости от 1 до 10 км при отсутствии осадков обычно наблюдается дымка, при ухудшении видимости до 1 км и менее - туман. В сухую погоду видимость может ухудшаться дымом, пылью или мглою.
Явления - указаны атмосферные явления, наблюдавшиеся в срок или в последний час перед сроком; фигурными скобками обозначены явления, наблюдавшиеся между сроками (за 1-3 часа до срока); квадратными скобками обозначены град или гололедные отложения с указанием их диаметра в мм.
Облачность - указаны через наклонную черту общая и нижняя облачность в баллах и высота нижней границы облаков в метрах; квадратными скобками обозначены формы облаков: Ci - перистые, Cs - перисто-слоистые, Cc - перисто-кучевые, Ac - высококучевые, As - высокослоистые, Sc - слоисто-кучевые, Ns - слоисто-дождевые, Cu - кучевые, Cb - кучево-дождевые. Подробнее классификацию облаков см. в Атласе облаков (PDF).
T - Температура воздуха - температура, измеренная на высоте 2 м над землей.
Td - Температура точки росы - температура, при понижении до которой содержащийся в воздухе водяной пар достигнет насыщения.
f - Относительная влажность воздуха - влажноcть воздуха, измеренная на высоте 2 м над землей.
Te - Эффективная температура - температура, которую ощущает одетый по сезону человек в тени. Характеристика душности погоды. При расчете учитывается влияние влажности воздуха и скорости ветра на теплоощущения человека.
Tes - Эффективная температура на солнце - температура, которую ощущает человек, с поправкой на солнечный нагрев. Характеристика знойности погоды. Зависит от высоты солнца над горизонтом, облачности и скорости ветра. Ночью, в пасмурную погоду, а также при ветре 12 м/с и более поправка равна нулю.
P - Атмосферное давление - приведенное к уровню моря атмосферное давление.
Po - Атмосферное давление - измеренное на уровне метеостанции атмосферное давление.
Tmin - Минимальная температура - минимум температуры воздуха на высоте 2 м над землей.
Tmax - Максимальная температура - максимум температуры воздуха на высоте 2 м над землей.
R - Количество осадков - Количество выпавших осадков за период времени, мм. При наведении курсора мыши на число - период времени, за который выпало указанное количество осадков.
R24 - Количество осадков - Количество выпавших осадков за 24 часа, мм.
S - Снежный покров - Высота снежного покрова, см. При наведении курсора мыши на число - состояние снежного покрова и степень покрытия местности в баллах.